Location: Bats
(43.6587°N, 0.4584°W)
Time: 20:48:08
(UTC+00:00)

Cosmos 2251 Rocket - Pass Details

Date: 12 January 2026
Orbit: 762 x 787 km, 74.0° (Epoch: 13 February)

Event Time Altitude Azimuth Distance (km) Brightness Sun altitude
Rises 17:45:03 0° 336° (NNW) 3,259 6.8 -10.4°
Reaches altitude 10° 17:47:28 10° 334° (NNW) 2,324 6.1 -10.8°
Maximum altitude 17:52:41 65° 253° (WSW) 845 4.0 -11.7°
Drops below altitude 10° 17:57:49 10° 173° (S) 2,294 6.1 -12.5°
Sets 18:00:11 0° 170° (S) 3,213 6.8 -12.9°
